Kahului, HI

4:53 AM HST on April 24, 2017 (GMT -1000)
Kahului

Weather History for PHOG - May, 2013

Change the Weather History Date:

Tuesday, May 28, 2013

  Actual Average Record
Temperature  
Mean Temperature 78 °F 77 °F  
Max Temperature 89 °F 85 °F 93 °F (1953)
Min Temperature 66 °F 68 °F 60 °F (1964)
Degree Days  
Heating Degree Days 0 0  
Month to date heating degree days 0 0  
Since 1 July heating degree days 0 0  
Cooling Degree Days 13 12  
Month to date cooling degree days 359 299  
Year to date cooling degree days 1342 1225  
Growing Degree Days 28 (Base 50)    
Moisture  
Dew Point 68 °F    
Average Humidity 73    
Maximum Humidity 93    
Minimum Humidity 53    
Precipitation  
Precipitation 0.00 in 0.02 in 0.08 in (1978)
Month to date precipitation 0.79 0.71  
Year to date precipitation 6.99 9.47  
Snow  
Snow 0.00 in - - ()
Month to date snowfall 0.0  
Since 1 July snowfall 0.0  
Snow Depth 0.00 in    
Sea Level Pressure  
Sea Level Pressure 30.08 in    
Wind  
Wind Speed 7 mph (East)    
Max Wind Speed 23 mph    
Max Gust Speed 29 mph    
Visibility 10 miles    
Events      
T = Trace of Precipitation, MM = Missing Value Source: NWS Daily Summary

Daily Weather History Graph

Daily Weather History Graph

Search for Another Location

Airport or City:

Trip Planner

Search our weather history database for the weather conditions in past years. The results will help you decide how hot, cold, wet, or windy it might be!

Date:

Astronomy

May. 28, 2013 Rise Set
Actual Time 5:44 AM HST 7:01 PM HST
Civil Twilight 5:20 AM HST 7:26 PM HST
Nautical Twilight 4:51 AM HST 7:55 PM HST
Astronomical Twilight 4:21 AM HST 8:25 PM HST
Moon 10:50 PM HST (5/28) 9:33 AM HST (5/28)
Length of Visible Light 14h 06m
Length of Day
13h 17m
Waning Gibbous, 80% of the Moon is Illuminated
May 28
Waning Gibbous
May 31
Last Quarter
Jun 8
New
Jun 16
First Quarter
Jun 23
Full

Hourly Weather History & Observations

Time (HST) Temp. Heat Index Dew Point Humidity Pressure Visibility Wind Dir Wind Speed Gust Speed Precip Events Conditions
12:54 AM 71.1 °F - 66.0 °F 84% 30.09 in 10.0 mi Calm Calm - N/A   Clear
1:54 AM 69.1 °F - 66.0 °F 90% 30.07 in 10.0 mi SSE 3.5 mph - N/A   Clear
2:54 AM 68.0 °F - 64.9 °F 90% 30.06 in 10.0 mi Calm Calm - N/A   Clear
3:54 AM 66.0 °F - 64.9 °F 96% 30.05 in 10.0 mi SSE 4.6 mph - N/A   Clear
4:54 AM 66.9 °F - 64.9 °F 93% 30.07 in 10.0 mi SSE 4.6 mph - N/A   Partly Cloudy
5:54 AM 66.9 °F - 64.0 °F 90% 30.07 in 10.0 mi East 4.6 mph - N/A   Clear
6:54 AM 69.1 °F - 64.9 °F 87% 30.09 in 10.0 mi Calm Calm - N/A   Clear
7:54 AM 75.9 °F - 66.0 °F 71% 30.09 in 10.0 mi NNE 3.5 mph - N/A   Partly Cloudy
8:54 AM 81.0 °F 83.3 °F 66.9 °F 62% 30.09 in 10.0 mi Variable 3.5 mph - N/A   Scattered Clouds
9:54 AM 82.9 °F 87.0 °F 70.0 °F 65% 30.08 in 10.0 mi ENE 9.2 mph - N/A   Scattered Clouds
10:54 AM 84.9 °F 89.4 °F 70.0 °F 61% 30.09 in 10.0 mi ENE 16.1 mph 21.9 mph N/A   Scattered Clouds
11:54 AM 84.9 °F 89.4 °F 70.0 °F 61% 30.08 in 10.0 mi ENE 17.3 mph 24.2 mph N/A   Scattered Clouds
12:54 PM 86.0 °F 90.7 °F 70.0 °F 59% 30.07 in 10.0 mi NE 16.1 mph 26.5 mph N/A   Scattered Clouds
1:54 PM 87.1 °F 90.6 °F 68.0 °F 53% 30.06 in 10.0 mi ENE 16.1 mph 24.2 mph N/A   Scattered Clouds
2:54 PM 84.9 °F 87.6 °F 66.9 °F 55% 30.05 in 10.0 mi ENE 13.8 mph 19.6 mph N/A   Scattered Clouds
3:54 PM 88.0 °F 92.1 °F 69.1 °F 53% 30.04 in 10.0 mi NNE 18.4 mph - N/A   Scattered Clouds
4:54 PM 86.0 °F 89.4 °F 68.0 °F 55% 30.04 in 10.0 mi NE 10.4 mph - N/A   Scattered Clouds
5:54 PM 82.9 °F 87.0 °F 70.0 °F 65% 30.05 in 10.0 mi NE 13.8 mph - N/A   Scattered Clouds
6:54 PM 80.1 °F 82.7 °F 68.0 °F 67% 30.06 in 10.0 mi Variable 4.6 mph - N/A   Scattered Clouds
7:54 PM 78.1 °F - 71.1 °F 79% 30.09 in 10.0 mi West 6.9 mph - N/A   Partly Cloudy
8:54 PM 77.0 °F - 72.0 °F 84% 30.11 in 10.0 mi Calm Calm - N/A   Mostly Cloudy
9:54 PM 77.0 °F - 71.1 °F 82% 30.12 in 10.0 mi Variable 3.5 mph - N/A   Clear
10:54 PM 73.9 °F - 70.0 °F 87% 30.12 in 10.0 mi South 4.6 mph - N/A   Clear
11:54 PM 73.0 °F - 70.0 °F 90% 30.11 in 10.0 mi SE 5.8 mph - N/A   Clear